Brownsville, TX

2:46 PM CDT on May 26, 2017 (GMT -0500)
Brownsville-South Padre I International

Weather History for KBRO - November, 2011

Change the Weather History Date:

Thursday, November 17, 2011

  Actual Average Record
Temperature  
Mean Temperature 66 °F 69 °F  
Max Temperature 74 °F 79 °F 91 °F (2015)
Min Temperature 57 °F 59 °F 35 °F (1920)
Degree Days  
Heating Degree Days 0 2  
Month to date heating degree days 18 18  
Since 1 July heating degree days 19 22  
Cooling Degree Days 1 6  
Month to date cooling degree days 117 121  
Year to date cooling degree days 4453 3886  
Growing Degree Days 16 (Base 50)    
Moisture  
Dew Point 60 °F    
Average Humidity 81    
Maximum Humidity 100    
Minimum Humidity 61    
Precipitation  
Precipitation T in 0.06 in 1.54 in (1975)
Month to date precipitation 0.54 1.18  
Year to date precipitation 16.38 25.65  
Sea Level Pressure  
Sea Level Pressure 30.19 in    
Wind  
Wind Speed 10 mph (North)    
Max Wind Speed 20 mph    
Max Gust Speed 28 mph    
Visibility 9 miles    
Events Rain    
T = Trace of Precipitation, MM = Missing Value Source: NWS Daily Summary

Daily Weather History Graph

Daily Weather History Graph

Search for Another Location

Airport or City:

Trip Planner

Search our weather history database for the weather conditions in past years. The results will help you decide how hot, cold, wet, or windy it might be!

Date:

Astronomy

Nov. 17, 2011 Rise Set
Actual Time 6:49 AM CST 5:39 PM CST
Civil Twilight 6:24 AM CST 6:04 PM CST
Nautical Twilight 5:56 AM CST 6:32 PM CST
Astronomical Twilight 5:29 AM CST 6:59 PM CST
Moon 11:48 PM CST (11/17) 12:08 PM CST (11/17)
Length of Visible Light 11h 39m
Length of Day
10h 50m
Waning Gibbous, 59% of the Moon is Illuminated
Nov 17
Waning Gibbous
Nov 18
Last Quarter
Nov 25
New
Dec 2
First Quarter
Dec 10
Full

Hourly Weather History & Observations

Time (CST) Temp. Dew Point Humidity Pressure Visibility Wind Dir Wind Speed Gust Speed Precip Events Conditions
12:18 AM 64.4 °F 64.4 °F 100% 30.07 in 1.0 mi Calm Calm - N/A   Mist
12:21 AM 64.4 °F 64.4 °F 100% 30.07 in 2.5 mi Calm Calm - N/A   Partly Cloudy
12:28 AM 64.4 °F 64.4 °F 100% 30.07 in 4.0 mi Calm Calm - 0.01 in   Partly Cloudy
12:34 AM 64.4 °F 64.4 °F 100% 30.07 in 1.8 mi Calm Calm - 0.01 in   Clear
12:43 AM 64.4 °F 62.6 °F 94% 30.08 in 3.0 mi NNW 3.5 mph - 0.01 in   Clear
12:50 AM 62.6 °F 62.6 °F 100% 30.08 in 1.8 mi Calm Calm - 0.01 in   Clear
12:53 AM 63.0 °F 62.1 °F 97% 30.08 in 1.5 mi Calm Calm - 0.01 in   Clear
1:15 AM 64.4 °F 62.6 °F 94% 30.09 in 4.0 mi North 5.8 mph - N/A   Clear
1:53 AM 64.9 °F 62.1 °F 90% 30.10 in 10.0 mi North 4.6 mph - N/A   Clear
2:53 AM 66.9 °F 64.0 °F 90% 30.12 in 10.0 mi North 6.9 mph - N/A   Clear
3:53 AM 70.0 °F 66.0 °F 87% 30.14 in 10.0 mi North 10.4 mph - N/A   Mostly Cloudy
4:28 AM 69.8 °F 64.4 °F 83% 30.15 in 10.0 mi North 9.2 mph - N/A   Mostly Cloudy
4:53 AM 69.1 °F 64.0 °F 84% 30.16 in 10.0 mi North 12.7 mph - N/A   Clear
5:13 AM 68.0 °F 62.6 °F 83% 30.17 in 10.0 mi North 11.5 mph 24.2 mph N/A   Mostly Cloudy
5:44 AM 66.2 °F 62.6 °F 88% 30.19 in 10.0 mi North 15.0 mph 20.7 mph N/A   Partly Cloudy
5:53 AM 66.9 °F 61.0 °F 81% 30.19 in 10.0 mi North 10.4 mph 20.7 mph N/A   Partly Cloudy
6:53 AM 64.9 °F 59.0 °F 81% 30.23 in 10.0 mi North 12.7 mph 19.6 mph N/A   Clear
7:53 AM 62.1 °F 53.1 °F 72% 30.26 in 10.0 mi NNW 13.8 mph 21.9 mph N/A   Clear
8:53 AM 64.0 °F 52.0 °F 65% 30.28 in 10.0 mi NNW 18.4 mph 26.5 mph N/A   Clear
9:53 AM 66.9 °F 53.1 °F 61% 30.28 in 10.0 mi NNW 15.0 mph 24.2 mph N/A   Clear
10:53 AM 72.0 °F 57.9 °F 61% 30.27 in 10.0 mi North 15.0 mph 26.5 mph N/A   Partly Cloudy
11:17 AM 71.6 °F 60.8 °F 69% 30.28 in 10.0 mi North 16.1 mph 25.3 mph N/A   Mostly Cloudy
11:53 AM 71.1 °F 60.1 °F 68% 30.27 in 10.0 mi North 15.0 mph 23.0 mph N/A   Overcast
12:53 PM 70.0 °F 59.0 °F 68% 30.25 in 10.0 mi North 13.8 mph 21.9 mph N/A   Overcast
1:21 PM 71.6 °F 59.0 °F 64% 30.25 in 10.0 mi North 13.8 mph 21.9 mph N/A   Overcast
1:43 PM 71.6 °F 57.2 °F 60% 30.24 in 10.0 mi NNW 15.0 mph 24.2 mph 0.00 in   Overcast
1:53 PM 70.0 °F 57.9 °F 65% 30.24 in 10.0 mi NNW 16.1 mph 25.3 mph 0.00 in Rain Light Rain
2:21 PM 71.6 °F 57.2 °F 60% 30.23 in 10.0 mi NNW 13.8 mph 20.7 mph 0.00 in   Mostly Cloudy
2:53 PM 73.0 °F 59.0 °F 61% 30.21 in 10.0 mi North 12.7 mph 24.2 mph 0.00 in   Scattered Clouds
3:40 PM 68.0 °F 60.8 °F 78% 30.21 in 10.0 mi North 9.2 mph - 0.00 in Rain Light Rain
3:53 PM 69.1 °F 62.1 °F 78% 30.21 in 10.0 mi North 12.7 mph 19.6 mph 0.00 in   Overcast
4:06 PM 69.8 °F 62.6 °F 78% 30.21 in 10.0 mi NNE 12.7 mph 18.4 mph N/A   Overcast
4:53 PM 70.0 °F 61.0 °F 73% 30.21 in 10.0 mi North 10.4 mph 23.0 mph N/A   Overcast
5:25 PM 69.8 °F 60.8 °F 73% 30.21 in 10.0 mi NNE 9.2 mph 17.3 mph 0.00 in Rain Light Rain
5:53 PM 68.0 °F 60.1 °F 76% 30.21 in 10.0 mi NNE 9.2 mph - 0.00 in Rain Light Rain
6:28 PM 68.0 °F 60.8 °F 78% 30.22 in 10.0 mi NNE 9.2 mph - 0.00 in   Overcast
6:53 PM 68.0 °F 59.0 °F 73% 30.23 in 10.0 mi NE 5.8 mph - 0.00 in   Overcast
7:53 PM 66.0 °F 57.9 °F 75% 30.25 in 10.0 mi NE 5.8 mph - N/A   Mostly Cloudy
8:53 PM 64.0 °F 57.0 °F 78% 30.25 in 10.0 mi NNE 3.5 mph - N/A   Clear
9:53 PM 62.1 °F 55.9 °F 80% 30.25 in 10.0 mi NNW 3.5 mph - N/A   Clear
10:53 PM 60.1 °F 55.9 °F 86% 30.23 in 10.0 mi NNW 5.8 mph - N/A   Clear
11:53 PM 57.9 °F 55.0 °F 90% 30.21 in 10.0 mi Calm Calm - N/A   Clear